Вернуться в каталог

OPS 5390

АктивенНавигацияSSO
NORAD 11389·PAYLOAD·🇺🇸 United States

Запущен Jun 6, 1979 с Vandenberg Space Force Base

Loading…

Ближайшие Пролёты (ближайшие 24 часа)

TLE

СвежийSource: Space-Track

Эпоха: Sep 14, 2026, 03:33 UTC

1 11389U 79050A   26257.14851392  .00000083  00000-0  49719-4 0  9993
2 11389  98.6397 211.0108 0010768 238.7719 121.2409 14.29366237388414

Отслеживайте OPS 5390 в реальном времени с AllMySat

Download on the App Store